OSCAR 3 1 01293U 65016F 10067.75940667 +.00000242 +00000-0 +18424-3 0 07472 2 01293 070.0757 319.6042 0019235 184.1777 175.9172 14.04765301296968 OSCAR 5 1 04321U 70008B 10067.58333042 -.00000031 +00000-0 +10000-3 0 02887 2 04321 102.1186 088.6135 0027647 200.0592 159.9392 12.52159148833859 OSCAR 6 1 06236U 72082B 10067.34030274 -.00000027 +00000-0 +10000-3 0 02800 2 06236 101.3917 075.0010 0004088 093.0273 267.1261 12.53080501710499 OSCAR 7 1 07530U 74089B 10067.48719346 -.00000027 +00000-0 +10000-3 0 07227 2 07530 101.4092 087.2415 0012128 111.3196 248.9180 12.53577978615836 OSCAR 8 1 10703U 78026B 10066.06169740 -.00000064 00000-0 -15102-4 0 7645 2 10703 098.7919 106.1041 0006282 152.9436 207.2054 13.98861620632776 OSCAR 10 1 14129U 83058B 10065.91713664 +.00000363 +00000-0 +10000-3 0 07219 2 14129 026.0073 106.7954 6074242 305.1407 011.9777 02.05867711173060 OSCAR 11 (UoSAT 2) 1 14781U 84021B 10067.74485729 -.00000168 +00000-0 -15129-4 0 01953 2 14781 098.0686 119.1192 0008681 197.0459 163.0434 14.79774331396951 OSCAR 16 (PACSAT) 1 20439U 90005D 10067.77201999 +.00000035 +00000-0 +28652-4 0 08411 2 20439 098.3204 029.6932 0011891 103.1245 257.1264 14.31851080051018 OSCAR 17 (DOVE) 1 20440U 90005E 10067.64689237 +.00000024 +00000-0 +24348-4 0 05608 2 20440 098.2950 033.6426 0011927 097.6885 262.5651 14.32155977051144 OSCAR 18 (WEBERSAT) 1 20441U 90005F 10067.55387102 +.00000006 +00000-0 +17694-4 0 00673 2 20441 098.3015 032.3454 0012487 102.1217 258.1366 14.31918932051059 OSCAR 19 (LUSAT) 1 20442U 90005G 10067.78592619 +.00000062 +00000-0 +38314-4 0 07525 2 20442 098.2811 035.9163 0012854 098.8970 261.3666 14.32084024051184 JAS 1B (FUJI 2) 1 20480U 90013C 10067.69485603 -.00000044 +00000-0 -17548-4 0 03940 2 20480 099.0476 304.0724 0539642 291.6363 062.8105 12.83364086940837 COSMOS 2123 1 21089U 91007A 10067.87293973 -.00000022 +00000-0 -39126-4 0 04085 2 21089 082.9172 070.2077 0028403 315.1918 044.6942 13.74491553957551 OSCAR 22 (UoSAT 5) 1 21575U 91050B 10067.69898757 +.00000037 +00000-0 +25914-4 0 07788 2 21575 098.4820 018.3939 0006706 312.5022 047.5587 14.39706043978760 OSCAR 23 (KITSAT 1) 1 22077U 92052B 10067.69362427 -.00000037 +00000-0 +10000-3 0 09769 2 22077 066.0844 132.6792 0010197 216.5878 143.4444 12.86451646825544 KITSAT B 1 22825U 93061C 10065.45633486 .00000007 00000-0 19583-4 0 4722 2 22825 098.4744 016.1228 0007757 207.5313 152.5470 14.29288374857376 POSAT 1 1 22826U 93061D 10067.77989370 +.00000024 +00000-0 +26233-4 0 02105 2 22826 098.4684 019.0228 0008567 194.8693 165.2246 14.29543374857816 ITAMSAT 1 22828U 93061F 10067.89900037 +.00000008 +00000-0 +19692-4 0 04108 2 22828 098.4624 018.9822 0009886 168.7615 191.3825 14.29839654826110 EYESAT A 1 22829U 93061G 10067.66914637 +.00000059 +00000-0 +39161-4 0 04351 2 22829 098.4583 019.9143 0010030 164.6904 195.4578 14.30239090858105 RADIO ROSTO 1 23439U 94085A 10067.81241408 -.00000039 +00000-0 +10000-3 0 02887 2 23439 064.8127 196.8815 0156556 002.2526 357.9069 11.27554893625955 JAS 2 1 24278U 96046B 10067.60400914 -.00000040 +00000-0 -55559-5 0 02641 2 24278 098.5205 270.6103 0351161 024.8853 336.8762 13.52948256669506 TMSAT 1 25396U 98043C 10067.79621188 -.00000018 +00000-0 +98998-5 0 06451 2 25396 098.3148 086.7050 0002618 157.0690 203.0605 14.23796352605954 TECHSAT 1B 1 25397U 98043D 10065.17360531 -.00000087 00000-0 -20733-4 0 1288 2 25397 098.3168 078.2872 0001386 160.3802 199.7431 14.23172344605393 SEDSAT 1 1 25509U 98061B 10067.82181575 +.00000098 +00000-0 +76800-5 0 06659 2 25509 031.4319 356.0753 0353791 132.3958 230.7172 14.28293514593695 PAN SAT 1 25520U 98064B 10067.91773038 +.00000745 +00000-0 +26578-4 0 04468 2 25520 028.4591 281.9477 0005017 307.4968 052.5180 15.17492262628908 ISS (ZARYA) 1 25544U 98067A 10066.24603009 .00014372 00000-0 10414-3 0 7197 2 25544 051.6481 033.9535 0007712 022.7807 178.1691 15.73699650647414 OSCAR 36 (UOSAT 12) 1 25693U 99021A 10065.46497743 -.00000085 00000-0 79224-5 0 1425 2 25693 064.5595 030.0583 0026570 323.9355 035.9950 14.78783605586627 OPAL 1 26063U 00004C 10067.59453061 -.00000026 +00000-0 +11350-4 0 07461 2 26063 100.2272 267.8479 0036600 236.9061 122.8601 14.35886975529897 SAUDISAT 1A 1 26545U 00057A 10065.96075212 -.00000015 00000-0 17278-4 0 4753 2 26545 064.5587 027.8200 0050696 238.3538 121.2593 14.80658647510105 TIUNGSAT 1 1 26548U 00057D 10067.71969609 +.00000226 +00000-0 +45190-4 0 06336 2 26548 064.5564 341.9218 0043543 236.4983 123.1989 14.83450665511191 SAUDISAT 1B 1 26549U 00057E 10067.68117791 +.00000115 +00000-0 +34406-4 0 05659 2 26549 064.5583 040.6233 0055696 239.2323 120.3304 14.79513798509991 AMSAT OSCAR 40 1 26609U 00072B 10062.93737247 -.00000131 00000-0 10000-3 0 3627 2 26609 010.1834 341.1672 7969791 289.8713 006.3674 01.25584065 42886 PCSAT 1 26931U 01043C 10067.67039343 +.00000219 +00000-0 +11776-3 0 04046 2 26931 067.0509 102.9492 0006589 263.6511 096.3844 14.29586903440389 SAPPHIRE 1 26932U 01043D 10067.69506538 -.00000113 +00000-0 -11850-4 0 04100 2 26932 067.0555 102.9213 0008411 263.6169 096.4001 14.29628549440432 RUBIN 2 1 27605U 02058A 10067.68307195 -.00000024 +00000-0 +17730-4 0 01348 2 27605 064.5578 287.6486 0036958 125.6259 234.8269 14.72446903387887 SAUDISAT 1C 1 27607U 02058C 10067.69938348 +.00000021 +00000-0 +25055-4 0 01212 2 27607 064.5586 301.7319 0037268 123.7537 236.7113 14.71507607387599 MOZHAYETS 4 1 27939U 03042A 10067.68156601 +.00000082 +00000-0 +24665-4 0 00275 2 27939 097.9070 297.3474 0014097 021.8279 338.3492 14.63388841344256 AMSAT ECHO 1 28375U 04025K 10067.72092843 +.00000039 +00000-0 +24264-4 0 06222 2 28375 098.0581 066.9587 0085152 042.3470 318.4246 14.40672663299041 HAMSAT 1 28650U 05017B 10065.96025778 -.00000056 +00000-0 -48351-6 0 04524 2 28650 097.7047 123.3226 0025955 250.1331 109.7052 14.81693688261554 SSETI-EXPRESS 1 28894U 05043E 10067.73302137 +.00000062 +00000-0 +22577-4 0 07109 2 28894 098.0249 314.9808 0016555 241.4123 118.5406 14.59711613232445 MOZ.5/SAFIR/RUBIN 5/SL-8 1 28898U 05043G 10067.67882371 +.00000021 +00000-0 +14224-4 0 05528 2 28898 098.0088 310.6956 0017718 253.8457 106.0787 14.58597611232258 PEHUENSAT 1 1 29712U 07001D 10065.61748783 .00000731 00000-0 10102-3 0 1647 2 29712 097.7935 120.3121 0014847 137.9772 222.2574 14.80905880170301 DELFI C3 1 32789U 08021G 10067.65343829 +.00000459 +00000-0 +64512-4 0 06261 2 32789 097.9105 134.2241 0014643 250.7177 109.2446 14.81998137100611